Location: Chiroubles
(46.1812°N, 4.6660°E)
Time: 19:06:28
(UTC+00:00)

USA 267 - Pass Details

Date: 15 August 2020
Orbit: 1101 x 1106 km, 123.0° (Epoch: 22 September)

Event Time Altitude Azimuth Distance (km) Brightness Sun altitude
Rises 21:33:13 0° 52° (NE) 3,928 6.2 -23.1°
Reaches altitude 10° 21:35:42 10° 52° (NE) 2,969 5.6 -23.4°
Maximum altitude 21:42:17 88° 326° (NW) 1,111 3.2 -24.0°
Drops below altitude 10° 21:48:51 10° 236° (SW) 2,961 5.5 -24.6°
Sets 21:51:19 0° 236° (SW) 3,917 6.1 -24.8°
